Regional Weather Roundup
Issued by NWS Boston, MA

Home | Current Version | Previous Version | Text Only | Print | Product List | Glossary On
Versions: 1 2 3 4 5 6 7 8 9 10 11 12 13 14 15 16 17 18 19 20 21 22 23 24 25 26 27 28 29 30 31 32 33 34 35 36 37 38 39 40 41 42 43 44 45 46 47 48 49 50
000
ASUS41 KBOX 220010
RWRBOX

REGIONAL WEATHER ROUNDUP
NATIONAL WEATHER SERVICE TAUNTON MA
800 PM EDT THU SEP 21 2017

NOTE:  "FAIR" INDICATES FEW OR NO CLOUDS BELOW 12,000 FEET WITH NO
SIGNIFICANT WEATHER AND/OR OBSTRUCTIONS TO VISIBILITY.

MAZALL-220100-
EASTERN MASSACHUSETTS

CITY           SKY/WX    TMP DP  RH WIND       PRES   REMARKS
BOSTON         CLOUDY    67  53  61 N13       30.02R
6HR MIN TEMP:  67; 6HR MAX TEMP:  72;

BEVERLY        CLOUDY    64  55  72 N7        30.02S
LAWRENCE       CLOUDY    68  54  60 N13       30.06R
BEDFORD        CLOUDY    66  51  58 N10       30.03R
BLUE HILL        N/A     65  50  58 N15G24    30.02R
NORWOOD        CLOUDY    70  53  54 VRB6      30.01R
MARSHFIELD     CLOUDY    64  55  72 N9G20     29.99R
PLYMOUTH       LGT RAIN  63  53  70 NE24G36   29.98R
TAUNTON        CLOUDY    68  48  48 NE13G24   29.98R
NEW BEDFORD    CLOUDY    67  49  52 N22G35    29.95R
$$

MAZALL-220100-
CAPE COD AND THE ISLANDS

CITY           SKY/WX    TMP DP  RH WIND       PRES   REMARKS
FALMOUTH       CLOUDY    63  55  77 N26G38    29.92R
HYANNIS        LGT RAIN  62  56  80 N24G32    29.87R
CHATHAM        LGT RAIN  63  59  87 NE15G33   29.87R
PROVINCETOWN   CLOUDY    62  54  74 NE30G37   29.94S
NANTUCKET      HVY RAIN  61  61 100 N36G53    29.79R FOG
MARTHAS VNYRD  LGT RAIN  64  54  69 N23G37    29.87S
$$

MAZALL-220100-
CENTRAL AND WESTERN MASSACHUSETTS

CITY           SKY/WX    TMP DP  RH WIND       PRES   REMARKS
WORCESTER      CLOUDY    63  49  60 N12       30.06R
6HR MIN TEMP:  63; 6HR MAX TEMP:  68;

FITCHBURG      MOCLDY    65  54  67 NW6       30.07R
ORANGE         MOCLDY    64  53  67 N5        30.06S
SPRINGFIELD    MOCLDY    67  55  66 N8        30.03S
WESTFIELD      CLOUDY    67  58  72 N9        30.04R
NORTH ADAMS    CLOUDY    63  60  90 CALM      30.08R
PITTSFIELD     CLOUDY    64  58  80 CALM      30.08R
$$

RIZALL-220100-
RHODE ISLAND

CITY           SKY/WX    TMP DP  RH WIND       PRES   REMARKS
PROVIDENCE     CLOUDY    69  52  54 N23G29    29.99R
6HR MIN TEMP:  69; 6HR MAX TEMP:  75;

NEWPORT        CLOUDY    68  51  54 N24G32    29.95R
BLOCK ISLAND   CLOUDY    68  52  56 N23G33    29.93F
SMITHFIELD     CLOUDY    65  55  70 N10       30.02R
WESTERLY       CLOUDY    69  55  60 N14G20    29.97R
$$

CTZALL-220100-
CONNECTICUT

CITY           SKY/WX    TMP DP  RH WIND       PRES   REMARKS
BRADLEY INTL   CLOUDY    69  56  62 N9        30.03S
6HR MIN TEMP:  68; 6HR MAX TEMP:  77;

HARTFORD       CLOUDY    70  56  61 N10       30.02R
BRIDGEPORT     CLOUDY    73  55  53 N8        30.00S
DANBURY        CLOUDY    72  65  78 CALM      30.04R
GROTON         CLOUDY    69  52  54 N14G25    29.97R
NEW HAVEN      CLOUDY    71  54  54 N9        30.00S
CHESTER          N/A     70  54  56 N13       30.01R
MERIDEN        CLOUDY    70  55  59 N9        30.02R
WILLIMANTIC    CLOUDY    67  52  58 N8        30.02R
OXFORD         MOCLDY    68  55  63 N10       30.04S
$$

MEZ002-015-021-024-NHZ003-005-008-011-012-014-VTZ005-008-220100-
NORTHERN NEW ENGLAND

CITY           SKY/WX    TMP DP  RH WIND       PRES   REMARKS
PORTLAND ME    CLOUDY    66  50  56 N9        30.08R
6HR MIN TEMP:  65; 6HR MAX TEMP:  75;

BANGOR ME      PTCLDY    64  46  52 NE7       30.13R
CONCORD NH     MOCLDY    66  51  58 N6        30.09R
MANCHESTER NH  CLOUDY    68  50  52 N9        30.05R
NASHUA NH      CLOUDY    66  53  63 NW6       30.07R
PORTSMOUTH NH  MOCLDY    67  51  57 N12       30.05R
JAFFREY NH     CLOUDY    59  56  89 CALM      30.10R
KEENE NH       CLOUDY    60  51  72 CALM      30.08S
BURLINGTON VT  CLOUDY    69  55  60 N6        30.12R
MT. WASHINGTON NOT AVBL
$$

NYZ052-076-220100-
EASTERN NEW YORK

CITY           SKY/WX    TMP DP  RH WIND       PRES   REMARKS
ALBANY         MOCLDY    71  58  63 NE12      30.06S
6HR MIN TEMP:  71; 6HR MAX TEMP:  81;

NEW YORK CITY  CLOUDY    76  64  66 N7        30.00R
6HR MIN TEMP:  76; 6HR MAX TEMP:  79;

$$

ANZALL-220100-
MARINE OBSERVATIONS

STATION/POSITION TIME  TEMP    WIND        PRES    VSBY  WAVE
                       AIR SEA DIR/SP/G                  HT/PER
                 (UTC) (F)     (DEG/KT/KT) (MB)    (MI)  (FT/S)
BOSTON BUOY      2350   63 60   20/ 17/ 21 1015.9R        11/10
BUZZARDS BAY     0000   64      10/ 43/ 50 1011.4F
NANTUCKET SOUND  2350   63 61   10/ 33/ 43 1008.8F         6/ 5
MASS BAY-STELLWA 2304   64 61   30/ 17/ 21 1015.2R        11/11
ISLE OF SHOALS   0000   64      40/ 18/ 20 1017.0R
S OF BLOCK IS    NOT AVBL
$$

......................KEY.........................
  SKY/WX - SKY CONDITION/PRESENT WEATHER
  TMP    - TEMPERATURE IN FAHRENHEIT
  DWPT   - DEWPOINT IN FAHRENHEIT
  RH     - RELATIVE HUMIDITY IN PERCENT
  WIND   - DIRECTION AND SPEED IN MPH
  PRES   - MEAN SEA LEVEL PRESSURE IN INCHES OF HG
  WCI    - WIND CHILL INDEX
  VSB    - VISIBILITY IN MILES
  HX     - HEAT INDEX
  TC     - TEMPERATURE IN CELSIUS
  VRB    - VARIABLE WIND DIRECTION
  N/A    - NOT AVAILABLE



USA.gov is the U.S. government's official web portal to all federal, state and local government web resources and services.